KV6O Weather Reports


time (UTC)temp
F
wind
direction
speed
knots
gust
knots
rain 1hr
in
rain 24hr
in
rain mn
in
humidity
%
barometer
mb
20220525140813 37 6 9.6 10.4 0.00 0.00 0.58 84
20220525140012 37 330 8.7 13.9 0.00 0.00 0.57 84
20220525135615 0 0 0.0 0.0 0.00 0.00 0.00 100
20220525134814 37 350 6.1 15.6 0.00 0.00 0.57 85
20220525134014 36 13 10.4 14.8 0.00 0.00 0.57 84
20220525133213 36 13 17.4 16.5 0.00 0.00 0.57 84
20220525132416 0 0 0.0 0.0 0.00 0.00 0.00 100
20220525131615 0 0 0.0 0.0 0.00 0.00 0.00 100
20220525130812 35 333 7.8 19.1 0.00 0.00 0.57 85
20220525130014 35 13 7.0 15.6 0.00 0.00 0.57 86
20220525125612 35 359 8.7 18.2 0.00 0.00 0.57 85
20220525124815 0 0 0.0 0.0 0.00 0.00 0.00 100
20220525124015 0 0 0.0 0.0 0.00 0.00 0.00 100
20220525123214 0 0 0.0 0.0 0.00 0.00 0.00 100
20220525122414 35 350 7.0 20.0 0.00 0.00 0.57 86
20220525121616 0 0 0.0 0.0 0.00 0.00 0.00 100
20220525120814 0 0 0.0 0.0 0.00 0.00 0.00 100
20220525120016 0 0 0.0 0.0 0.00 0.00 0.00 100
20220525115615 0 0 0.0 0.0 0.00 0.00 0.00 100
20220525114814 34 13 6.1 13.9 0.00 0.00 0.57 87
20220525114014 0 0 0.0 0.0 0.00 0.00 0.00 100
20220525113212 34 354 10.4 19.1 0.00 0.00 0.57 87
20220525112413 34 354 7.0 20.0 0.00 0.00 0.57 88
20220525111613 34 3 10.4 15.6 0.00 0.00 0.57 89
20220525110812 34 319 7.8 23.5 0.00 0.00 0.57 90
20220525110015 34 14 8.7 14.8 0.00 0.00 0.57 91
20220525105612 34 343 8.7 15.6 0.00 0.00 0.57 91
20220525104814 33 330 7.0 12.2 0.00 0.00 0.57 92
20220525104014 33 352 7.0 13.0 0.00 0.00 0.57 92
20220525103214 33 328 8.7 9.6 0.00 0.00 0.57 92
20220525102412 33 14 6.1 11.3 0.00 0.00 0.57 93
20220525101613 33 339 7.0 13.9 0.00 0.00 0.57 92
20220525100812 33 3 9.6 13.0 0.00 0.00 0.57 92
20220525100014 33 350 8.7 17.4 0.00 0.00 0.57 92
20220525095615 0 0 0.0 0.0 0.00 0.00 0.00 100
20220525094813 33 4 5.2 14.8 0.00 0.00 0.57 92
20220525094013 33 350 6.1 17.4 0.00 0.00 0.57 92
20220525093213 33 344 6.1 14.8 0.00 0.00 0.57 92
20220525092413 33 346 8.7 11.3 0.00 0.00 0.57 93
20220525091613 33 346 7.8 11.3 0.00 0.00 0.57 93
20220525090813 33 315 9.6 13.9 0.00 0.00 0.57 93
20220525090014 0 0 0.0 0.0 0.00 0.00 0.00 100
20220525085614 0 0 0.0 0.0 0.00 0.00 0.00 100
20220525084814 33 3 5.2 10.4 0.00 0.00 0.57 95
20220525084013 33 16 8.7 13.9 0.00 0.00 0.57 96
20220525083214 33 354 5.2 9.6 0.00 0.00 0.57 96
20220525082412 33 4 7.0 13.9 0.00 0.00 0.57 97
20220525081614 0 0 0.0 0.0 0.00 0.00 0.00 100
20220525080814 31 20 7.0 12.2 0.00 0.00 0.57 99
20220525080013 31 106 0.0 2.6 0.00 0.00 0.57 99
20220525075612 31 42 0.0 1.7 0.00 0.00 0.57 99
20220525074814 31 0 1.7 0.0 0.00 0.00 0.57 98
20220525074013 32 0 0.0 0.0 0.00 0.00 0.57 98
20220525073211 32 0 0.0 0.0 0.00 0.00 0.57 97
20220525072412 33 267 0.9 3.5 0.00 0.00 0.57 98
20220525071613 33 17 0.0 7.0 0.00 0.00 0.57 97
20220525070813 33 335 0.0 11.3 0.00 0.00 0.57 98
20220525070014 33 353 2.6 9.6 0.00 0.00 0.57 97
20220525065612 33 353 3.5 9.6 0.00 0.00 0.57 98
20220525064813 33 357 7.8 12.2 0.00 0.00 0.57 98
20220525064015 0 0 0.0 0.0 0.00 0.00 0.00 100
20220525063212 33 11 3.5 9.6 0.00 0.00 0.57 99
20220525062414 33 30 2.6 7.0 0.00 0.00 0.57 99
20220525061615 32 30 3.5 7.0 0.00 0.00 0.57 100
20220525060812 32 48 3.5 4.3 0.00 0.00 0.57 100
20220525060015 32 3 0.0 7.8 0.00 0.00 0.57 100
20220525055613 32 3 0.0 7.8 0.00 0.00 0.57 100
20220525054813 32 32 2.6 5.2 0.00 0.00 0.57 100
20220525054015 0 0 0.0 0.0 0.00 0.00 0.00 100
20220525053214 32 68 0.9 1.7 0.00 0.00 0.57 100
20220525052413 32 21 0.0 0.9 0.00 0.00 0.57 100
20220525051613 32 17 0.0 2.6 0.00 0.00 0.57 100
20220525050812 0 0 0.0 0.0 0.00 0.00 0.00 100
20220525050012 32 4 5.2 6.1 0.00 0.00 0.57 99
20220525045616 0 0 0.0 0.0 0.00 0.00 0.00 100
20220525044815 0 0 0.0 0.0 0.00 0.00 0.00 100
20220525044015 0 0 0.0 0.0 0.00 0.00 0.00 100
20220525043213 33 11 3.5 7.8 0.00 0.00 0.57 99
20220525042414 0 0 0.0 0.0 0.00 0.00 0.00 100
20220525041613 33 8 3.5 8.7 0.00 0.00 0.57 99
20220525040815 0 0 0.0 0.0 0.00 0.00 0.00 100
20220525040013 34 24 5.2 7.0 0.00 0.00 0.57 100
20220525035614 34 24 3.5 7.0 0.00 0.00 0.57 100
20220525034814 34 10 2.6 6.1 0.00 0.00 0.57 100
20220525034015 0 0 0.0 0.0 0.00 0.00 0.00 100
20220525033214 0 0 0.0 0.0 0.00 0.00 0.00 100
20220525032413 34 353 3.5 5.2 0.00 0.00 0.57 100
20220525031612 34 353 3.5 5.2 0.00 0.00 0.57 99
20220525030813 34 360 5.2 7.0 0.00 0.00 0.57 99
20220525030014 34 4 4.3 6.1 0.00 0.00 0.57 99
20220525025612 34 4 2.6 6.1 0.00 0.00 0.57 99
20220525024813 34 3 3.5 6.1 0.00 0.00 0.57 100
20220525024013 34 352 5.2 5.2 0.00 0.00 0.57 100
20220525023213 34 354 4.3 7.0 0.00 0.00 0.57 100
20220525022414 0 0 0.0 0.0 0.00 0.00 0.00 100
20220525021613 34 357 4.3 5.2 0.00 0.00 0.57 100
20220525020815 0 0 0.0 0.0 0.00 0.00 0.00 100
20220525020014 34 14 0.9 2.6 0.00 0.00 0.57 99
20220525015614 34 4 0.0 5.2 0.00 0.00 0.57 99
20220525014812 35 41 4.3 6.1 0.00 0.00 0.57 98
20220525014015 0 0 0.0 0.0 0.00 0.00 0.00 100
20220525013215 35 28 5.2 10.4 0.00 0.00 0.57 98
20220525012415 36 11 4.3 6.1 0.00 0.00 0.57 98
20220525011613 36 21 1.7 6.1 0.00 0.00 0.57 98
20220525010815 0 0 0.0 0.0 0.00 0.00 0.00 100
20220525010014 36 7 1.7 6.1 0.00 0.00 0.57 98
20220525005613 36 0 4.3 0.0 0.00 0.00 0.57 98
20220525004814 0 0 0.0 0.0 0.00 0.00 0.00 100
20220525004014 37 11 1.7 3.5 0.00 0.00 0.57 97
20220525003214 37 0 0.0 0.0 0.00 0.00 0.57 97
20220525002415 0 0 0.0 0.0 0.00 0.00 0.00 100
20220525001614 37 8 0.9 3.5 0.00 0.00 0.57 97
20220525000814 0 0 0.0 0.0 0.00 0.00 0.00 100
20220525000015 0 0 0.0 0.0 0.00 0.00 0.00 100
20220524235615 0 0 0.0 0.0 0.00 0.00 0.00 100
20220524234813 37 0 0.0 0.0 0.00 0.00 0.57 97
20220524234014 0 0 0.0 0.0 0.00 0.00 0.00 100
20220524233215 0 0 0.0 0.0 0.00 0.00 0.00 100
20220524232414 38 0 0.0 0.0 0.00 0.00 0.57 96
20220524231614 0 0 0.0 0.0 0.00 0.00 0.00 100
20220524230814 38 210 0.0 5.2 0.00 0.00 0.57 94
20220524230011 39 192 3.5 5.2 0.00 0.00 0.57 91
20220524225614 39 169 3.5 7.0 0.00 0.00 0.57 90
20220524224813 40 168 0.9 5.2 0.00 0.00 0.57 87
20220524224013 40 189 3.5 6.1 0.00 0.00 0.57 86
20220524223215 0 0 0.0 0.0 0.00 0.00 0.00 100
20220524222412 39 275 0.0 4.3 0.00 0.00 0.57 92
20220524221611 39 313 0.0 4.3 0.00 0.00 0.57 90
20220524220811 39 0 1.7 0.0 0.00 0.00 0.57 92
20220524220016 0 0 0.0 0.0 0.00 0.00 0.00 100
20220524215612 39 0 0.0 0.0 0.00 0.00 0.57 93
20220524214816 0 0 0.0 0.0 0.00 0.00 0.00 100
20220524214015 0 0 0.0 0.0 0.00 0.00 0.00 100
20220524213214 38 0 0.0 0.0 0.00 0.00 0.57 95
20220524212414 38 0 0.0 0.0 0.00 0.00 0.57 95
20220524211613 0 0 0.0 0.0 0.00 0.00 0.00 100
20220524210813 38 0 0.0 0.0 0.00 0.00 0.57 95
20220524210014 0 0 0.0 0.0 0.00 0.00 0.00 100
20220524205612 38 165 0.0 0.0 0.00 0.00 0.57 93
20220524204816 0 0 0.0 0.0 0.00 0.00 0.00 100
20220524204013 38 0 0.0 0.0 0.00 0.00 0.57 95
20220524203214 38 346 0.0 1.7 0.00 0.00 0.57 95
20220524202414 39 44 0.0 0.0 0.00 0.00 0.57 94
20220524201615 39 17 0.0 2.6 0.00 0.00 0.57 90
20220524200814 0 0 0.0 0.0 0.00 0.00 0.00 100
20220524200013 39 55 0.9 1.7 0.00 0.00 0.57 93
20220524195612 39 40 0.0 3.5 0.00 0.00 0.57 89
20220524194815 0 0 0.0 0.0 0.00 0.00 0.00 100
20220524194014 38 347 1.7 2.6 0.00 0.00 0.55 96
20220524193215 37 337 3.5 5.2 0.00 0.00 0.52 97
20220524192413 37 8 0.0 8.7 0.00 0.00 0.50 97
20220524191613 37 10 3.5 7.0 0.00 0.00 0.49 97
20220524190813 37 352 3.5 10.4 0.00 0.00 0.47 97
20220524190015 37 357 3.5 7.8 0.00 0.00 0.45 96
20220524185613 37 20 4.3 6.1 0.00 0.00 0.44 97
20220524184813 38 4 3.5 2.6 0.00 0.00 0.42 96
20220524184012 38 340 0.0 4.3 0.00 0.00 0.40 96
20220524183212 38 30 3.5 5.2 0.00 0.00 0.38 95
20220524182414 37 23 1.7 6.1 0.00 0.00 0.34 96
20220524181613 37 360 4.3 7.0 0.00 0.00 0.29 97
20220524180813 36 360 4.3 5.2 0.00 0.00 0.24 98
20220524180014 36 0 0.0 7.8 0.00 0.00 0.20 98
20220524175613 35 346 2.6 7.0 0.00 0.00 0.18 98
20220524174815 0 0 0.0 0.0 0.00 0.00 0.00 100
20220524174014 35 332 4.3 9.6 0.00 0.00 0.12 98
20220524173215 0 0 0.0 0.0 0.00 0.00 0.00 100
20220524172414 0 0 0.0 0.0 0.00 0.00 0.00 100
20220524171613 34 17 1.7 4.3 0.00 0.00 0.08 99
20220524170813 34 0 0.0 0.0 0.00 0.00 0.07 99
20220524170013 34 0 0.0 0.0 0.00 0.00 0.07 99
20220524165616 0 0 0.0 0.0 0.00 0.00 0.00 100
20220524164813 33 0 0.0 0.0 0.00 0.00 0.06 99
20220524164015 0 0 0.0 0.0 0.00 0.00 0.00 100
20220524163213 33 0 0.0 0.0 0.00 0.00 0.05 99
20220524162413 33 0 0.0 0.0 0.00 0.00 0.05 99
20220524161613 0 0 0.0 0.0 0.00 0.00 0.00 100
20220524160811 33 0 0.0 0.0 0.00 0.00 0.04 99
20220524160012 33 0 0.0 0.0 0.00 0.00 0.04 99
20220524155615 0 0 0.0 0.0 0.00 0.00 0.00 100
20220524154812 33 0 0.0 0.0 0.00 0.00 0.03 98
20220524154015 0 0 0.0 0.0 0.00 0.00 0.00 100
20220524153216 0 0 0.0 0.0 0.00 0.00 0.00 100
20220524152414 33 0 0.0 0.0 0.00 0.00 0.02 99
20220524151613 33 0 0.0 0.0 0.00 0.00 0.02 99
20220524150814 0 0 0.0 0.0 0.00 0.00 0.00 100
20220524150014 33 0 0.0 0.0 0.00 0.00 0.01 99
20220524145615 33 0 0.0 0.0 0.00 0.00 0.01 99
20220524144813 33 0 0.0 0.0 0.00 0.00 0.01 99
20220524144013 33 0 0.0 0.0 0.00 0.00 0.01 100
20220524143212 33 0 0.0 0.0 0.00 0.00 0.01 99
20220524142412 33 0 0.0 0.0 0.00 0.00 0.01 100
20220524141613 33 0 0.0 0.0 0.00 0.00 0.01 100